Вернуться в каталог

ONEWEB-0444

АктивенСвязьPO
NORAD 51638·PAYLOAD·🇬🇧 United Kingdom

Запущен Feb 10, 2022 с Guiana Space Centre

Loading…

Ближайшие Пролёты (ближайшие 24 часа)

TLE

СвежийSource: CelesTrak SupGP

Эпоха: Sep 14, 2026, 23:27 UTC

1 51638C 22012S   26257.97724955 -.00002438  00000+0 -69923-2 0  2576
2 51638  87.8899  18.3905 0001913 101.0205 296.8630 13.10369393    16

Отслеживайте ONEWEB-0444 в реальном времени с AllMySat

Download on the App Store